Regional Weather Roundup
Issued by NWS Green Bay, WI

Home | Current Version | Previous Version | Text Only | Print | Product List | Glossary On
Versions: 1 2 3 4 5 6 7 8 9 10 11 12 13 14 15 16 17 18 19 20 21 22 23 24 25 26 27 28 29 30 31 32 33 34 35 36 37 38 39 40 41 42 43 44 45 46 47 48 49 50
000
ASUS43 KGRB 310010
RWRGRB

NORTH-CENTRAL AND NORTHEAST WISCONSIN REGIONAL WEATHER ROUNDUP
NATIONAL WEATHER SERVICE GREEN BAY WI
700 PM CDT SAT AUG 30 2014

WIZ005-009-010>012-018-019-310100-
NORTH CENTRAL WISCONSIN

CITY           SKY/WX    TMP DP  RH WIND       PRES   REMARKS
IRONWOOD       NOT AVBL
MANITOWISH WTR CLOUDY    58  57  97 N6        29.90R
ARBOR VITAE    CLOUDY    60  57  91 N8        29.89R
EAGLE RIVER    CLOUDY    59  57  94 N7        29.88R
LAND O LAKES   CLOUDY    58  56  92 N7        29.90R
RHINELANDER    CLOUDY    61  57  87 VRB3      29.89R
PHILLIPS       CLOUDY    63  58  86 N3        29.88R
ANTIGO         CLOUDY    62  60  93 NW8       29.86R
TOMAHAWK       CLOUDY    61  57  88 NW6       29.89R
MERRILL        CLOUDY    63  61  91 N5        29.87R
$$

WIZ013-073-310100-
NORTHEAST WISCONSIN

CITY           SKY/WX    TMP DP  RH WIND       PRES   REMARKS
IRON MOUNTAIN  CLOUDY    62  57  83 NW9       29.83R
MARINETTE      CLOUDY    66  63  88 N8        29.79R
OCONTO         CLOUDY    67  67 100 N5        29.79S
$$

WIZ017-030-035>037-045-310100-
CENTRAL WISCONSIN

CITY           SKY/WX    TMP DP  RH WIND       PRES   REMARKS
MEDFORD        CLOUDY    62  59  91 N6        29.88S
WAUSAU         CLOUDY    66  61  84 N8        29.85R
MOSINEE        CLOUDY    66  64  94 N9        29.87R
MARSHFIELD     CLOUDY    67  62  84 NW8       29.86R
WISC RAPIDS    CLOUDY    71  64  78 N9        29.86R
STEVENS POINT  MOCLDY    68  62  82 NW7       29.85R
WAUPACA        PTCLDY    73  67  80 NW7       29.83R
SHAWANO        CLOUDY    72  67  84 NW7       29.82R
CLINTONVILLE   PTCLDY    70  64  83 NW8       29.82R
$$

WIZ038-039-048-051-310100-
FOX VALLEY

CITY           SKY/WX    TMP DP  RH WIND       PRES   REMARKS
NWS GREEN BAY  MOCLDY    71  67  87 NW10      29.80R
APPLETON       MOCLDY    72  64  78 W8        29.82R
OSHKOSH        PTCLDY    73  65  75 NW5       29.82R
FOND DU LAC    PTCLDY    72  67  84 CALM      29.82R
$$

WIZ022-050-052-310100-
EAST CENTRAL WISCONSIN

CITY           SKY/WX    TMP DP  RH WIND       PRES   REMARKS
STURGEON BAY   CLOUDY    68  63  83 N15       29.80R
MANITOWOC      CLOUDY    74  66  76 W10       29.80R
SHEBOYGAN      PTCLDY    72  68  87 W6        29.81R
$$

LMZ563-521-522-541>543-310100-
LAKESHORE

STATION/POSITION TIME  TEMP    WIND        PRES    VSBY  WAVE
                       AIR SEA DIR/SP/G                  HT/PER
                 (UTC) (F)     (DEG/KT/KT) (MB)    (MI)  (FT/S)
SHEBOYGAN LKSHOR 0000   72 52  250/  7/  8 1009.3R
KEWAUNEE LKSHORE 0000   70     310/  5/  8 1007.7S
NORTHPORT PIER   0000   66     330/ 18/ 21 1008.5R
N MID LAKE BUOY  0000   63 65  320/ 19/ 23 1007.2R         4/ 6
S GREEN BAY BUOY 0000   69     VRB 14/ 17  1009.8R
STURGEON BAY CG  0000   71 66  320/  2     1009.0   3 1/2  3
CHAMBERS ISLAND  0000   67     320/ 11/ 13 1008.8R
MENOMINEE LKSHOR 0000   66     320/ 10/ 13 1009.4R
$$


USA.gov is the U.S. government's official web portal to all federal, state and local government web resources and services.